| time (UTC) | temp F | wind direction | speed knots | gust knots | rain 1hr in | rain 24hr in | rain mn in | humidity % | barometer mb |
| 20260506003429 | 73 | 315 | 0.0 | 0.9 | 0.00 | 0.00 | 0.00 | 71 | 1012.9 |
| 20260506001428 | 75 | 203 | 0.9 | 1.7 | 0.00 | 0.00 | 0.00 | 71 | 1013.1 |
| 20260505235429 | 77 | 215 | 2.6 | 4.3 | 0.00 | 0.00 | 0.00 | 65 | 1013.1 |
| 20260505233428 | 78 | 270 | 3.5 | 4.3 | 0.00 | 0.00 | 0.00 | 60 | 1013.0 |
| 20260505231429 | 80 | 215 | 2.6 | 4.3 | 0.00 | 0.00 | 0.00 | 58 | 1013.0 |
| 20260505225429 | 83 | 242 | 4.3 | 5.2 | 0.00 | 0.00 | 0.00 | 56 | 1012.9 |
| 20260505223428 | 83 | 229 | 4.3 | 6.1 | 0.00 | 0.00 | 0.00 | 54 | 1013.1 |
| 20260505221429 | 84 | 225 | 4.3 | 7.0 | 0.00 | 0.00 | 0.00 | 51 | 1012.8 |
| 20260505215428 | 84 | 237 | 5.2 | 7.8 | 0.00 | 0.00 | 0.00 | 52 | 1012.6 |
| 20260505213428 | 85 | 244 | 4.3 | 7.0 | 0.00 | 0.00 | 0.00 | 51 | 1013.0 |
| 20260505211428 | 85 | 227 | 4.3 | 6.1 | 0.00 | 0.00 | 0.00 | 50 | 1012.8 |
| 20260505205429 | 86 | 244 | 3.5 | 6.1 | 0.00 | 0.00 | 0.00 | 49 | 1013.1 |
| 20260505203428 | 86 | 212 | 2.6 | 7.0 | 0.00 | 0.00 | 0.00 | 49 | 1013.2 |
| 20260505201428 | 85 | 243 | 4.3 | 7.0 | 0.00 | 0.00 | 0.00 | 50 | 1013.4 |
| 20260505195431 | 86 | 242 | 4.3 | 7.8 | 0.00 | 0.00 | 0.00 | 47 | 1013.4 |
| 20260505193428 | 87 | 149 | 4.3 | 6.1 | 0.00 | 0.00 | 0.00 | 48 | 1013.6 |
| 20260505191428 | 86 | 221 | 3.5 | 6.1 | 0.00 | 0.00 | 0.00 | 47 | 1014.0 |
| 20260505185428 | 84 | 187 | 3.5 | 6.1 | 0.00 | 0.00 | 0.00 | 50 | 1014.0 |
| 20260505183517 | 86 | 230 | 3.5 | 5.2 | 0.00 | 0.00 | 0.00 | 46 | 1014.1 |
| 20260505183428 | 86 | 230 | 3.5 | 5.2 | 0.00 | 0.00 | 0.00 | 46 | 1014.1 |
| 20260505181429 | 86 | 242 | 4.3 | 6.1 | 0.00 | 0.00 | 0.00 | 47 | 1014.4 |
| 20260505175429 | 85 | 225 | 2.6 | 4.3 | 0.00 | 0.00 | 0.00 | 47 | 1014.3 |
| 20260505173428 | 84 | 208 | 3.5 | 5.2 | 0.00 | 0.00 | 0.00 | 47 | 1014.5 |
| 20260505171429 | 82 | 169 | 2.6 | 4.3 | 0.00 | 0.00 | 0.00 | 51 | 1014.7 |
| 20260505165428 | 83 | 149 | 4.3 | 7.0 | 0.00 | 0.00 | 0.00 | 49 | 1014.8 |
| 20260505163428 | 83 | 163 | 3.5 | 5.2 | 0.00 | 0.00 | 0.00 | 50 | 1014.7 |
| 20260505161428 | 83 | 161 | 3.5 | 7.0 | 0.00 | 0.00 | 0.00 | 50 | 1014.9 |
| 20260505123428 | 61 | 127 | 0.9 | 1.7 | 0.00 | 0.00 | 0.00 | 88 | 1014.7 |
| 20260505121428 | 54 | 0 | 0.0 | 0.0 | 0.00 | 0.00 | 0.00 | 99 | 1014.6 |
| 20260505115429 | 48 | 0 | 0.0 | 0.0 | 0.00 | 0.00 | 0.00 | 99 | 1014.6 |
| 20260505113428 | 46 | 0 | 0.0 | 0.0 | 0.00 | 0.00 | 0.00 | 99 | 1014.1 |
| 20260505111428 | 45 | 0 | 0.0 | 0.0 | 0.00 | 0.00 | 0.00 | 99 | 1014.0 |
| 20260505101429 | 46 | 0 | 0.0 | 0.0 | 0.00 | 0.00 | 0.00 | 99 | 1014.1 |
| 20260505095429 | 45 | 0 | 0.0 | 0.0 | 0.00 | 0.00 | 0.00 | 99 | 1014.1 |
| 20260505093430 | 45 | 0 | 0.0 | 0.0 | 0.00 | 0.00 | 0.00 | 99 | 1013.2 |
| 20260505091430 | 45 | 0 | 0.0 | 0.0 | 0.00 | 0.00 | 0.00 | 99 | 1013.1 |
| 20260505085429 | 45 | 0 | 0.0 | 0.0 | 0.00 | 0.00 | 0.00 | 99 | 1013.1 |
| 20260505083430 | 45 | 0 | 0.0 | 0.0 | 0.00 | 0.00 | 0.00 | 99 | 1013.1 |
| 20260505081430 | 45 | 0 | 0.0 | 0.0 | 0.00 | 0.00 | 0.00 | 99 | 1012.9 |
| 20260505075430 | 45 | 0 | 0.0 | 0.0 | 0.00 | 0.00 | 0.00 | 99 | 1013.1 |
| 20260505073429 | 46 | 0 | 0.0 | 0.0 | 0.00 | 0.00 | 0.00 | 99 | 1013.1 |
| 20260505071429 | 46 | 0 | 0.0 | 0.0 | 0.00 | 0.00 | 0.00 | 99 | 1013.2 |
| 20260505065429 | 47 | 0 | 0.0 | 0.0 | 0.00 | 0.00 | 0.00 | 99 | 1013.4 |
| 20260505063430 | 47 | 0 | 0.0 | 0.0 | 0.00 | 0.00 | 0.00 | 99 | 1013.7 |
| 20260505061429 | 48 | 0 | 0.0 | 0.0 | 0.00 | 0.00 | 0.00 | 99 | 1013.6 |
| 20260505055429 | 48 | 0 | 0.0 | 0.0 | 0.00 | 0.00 | 0.00 | 99 | 1013.9 |
| 20260505053429 | 48 | 0 | 0.0 | 0.0 | 0.00 | 0.00 | 0.00 | 96 | 1013.6 |
| 20260505051429 | 50 | 0 | 0.0 | 0.0 | 0.00 | 0.00 | 0.00 | 97 | 1013.6 |
| 20260505041429 | 51 | 0 | 0.0 | 0.0 | 0.00 | 0.00 | 0.00 | 95 | 1014.1 |
| 20260505035430 | 52 | 0 | 0.0 | 0.0 | 0.00 | 0.00 | 0.00 | 94 | 1014.4 |
| 20260505033430 | 53 | 0 | 0.0 | 0.0 | 0.00 | 0.00 | 0.00 | 91 | 1014.6 |
| 20260505031429 | 54 | 0 | 0.0 | 0.0 | 0.00 | 0.00 | 0.00 | 91 | 1014.5 |
| 20260505025429 | 55 | 0 | 0.0 | 0.0 | 0.00 | 0.00 | 0.00 | 89 | 1014.6 |
| 20260505023429 | 56 | 0 | 0.0 | 0.0 | 0.00 | 0.00 | 0.00 | 86 | 1014.6 |
| 20260505021429 | 57 | 0 | 0.0 | 0.0 | 0.00 | 0.00 | 0.00 | 82 | 1014.6 |
| 20260505015429 | 58 | 0 | 0.0 | 0.0 | 0.00 | 0.00 | 0.00 | 78 | 1014.4 |
| 20260505013429 | 59 | 0 | 0.0 | 0.0 | 0.00 | 0.00 | 0.00 | 73 | 1014.6 |
| 20260505011429 | 61 | 0 | 0.0 | 0.0 | 0.00 | 0.00 | 0.00 | 66 | 1014.4 |
| 20260505005429 | 64 | 0 | 0.0 | 0.0 | 0.00 | 0.00 | 0.00 | 61 | 1014.4 |